DW4212 La Cabrera ES current weather conditions

sailwx.info

Wind from 360

Air temperature 8.3° C
Dewpoint 6.5° C

Last reported at 2014-Nov-21 23:49 UTC.
Time now 2014-Nov-22 00:23 UTC

Location: N 40°53' W 003°35'.
View on Google Maps.

See reports from other nearby stations

  
Tides and Currents Weather Stations Pressure Air Temp Water Temp Dewpoint Dewpoint Depression Visibility Wind Speed Wind Dir Waves Ship Positions
date/time (UTC)wind fromknots sea level pressurealtimeterstation pressurevisibilityair tempwater tempwave heightnotes
2014-Nov-21 23:49 360 8.3
2014-Nov-21 23:29 360 8.9
2014-Nov-21 23:19 360 8.9
2014-Nov-21 22:59 360 8.9
2014-Nov-21 22:49 360 8.9
2014-Nov-21 22:39 360 8.9
2014-Nov-21 22:29 360 8.9
2014-Nov-21 22:19 360 8.9
2014-Nov-21 22:09 360 8.9
2014-Nov-21 21:59 360 8.9
2014-Nov-21 21:49 360 8.9
2014-Nov-21 21:29 360 8.9
2014-Nov-21 21:19 360 9.4
2014-Nov-21 20:59 355 9.4
2014-Nov-21 20:49 188 9.4
2014-Nov-21 20:39 188 0 gusting 3 9.4
2014-Nov-21 20:29 188 0 gusting 1 9.4
2014-Nov-21 20:19 188 9.4
2014-Nov-21 20:09 188 9.4
2014-Nov-21 19:59 188 9.4
2014-Nov-21 19:49 188 9.4
2014-Nov-21 19:39 188 9.4
2014-Nov-21 19:29 188 9.4
2014-Nov-21 19:19 188 9.4
2014-Nov-21 19:09 188 9.4
2014-Nov-21 18:59 188 9.4
2014-Nov-21 18:49 188 9.4
2014-Nov-21 18:29 188 10.0
2014-Nov-21 18:19 188 10.0
2014-Nov-21 17:59 188 10.6
2014-Nov-21 17:49 188 10.6
2014-Nov-21 17:29 188 11.1
2014-Nov-21 17:19 188 11.1
2014-Nov-21 16:59 188 11.7
2014-Nov-21 16:49 188 12.2
2014-Nov-21 16:29 188 12.2
2014-Nov-21 16:19 188 12.8
2014-Nov-21 15:59 188 12.8
2014-Nov-21 15:49 188 13.3
2014-Nov-21 15:30 188 13.3
2014-Nov-21 15:19 188 12.8
2014-Nov-21 14:59 188 12.8
2014-Nov-21 14:49 188 12.8
2014-Nov-21 14:29 188 0 gusting 3 12.8
2014-Nov-21 14:19 188 12.8
2014-Nov-21 13:59 193 0 gusting 3 12.8
2014-Nov-21 13:49 193 12.8
2014-Nov-21 13:29 193 13.3
2014-Nov-21 13:19 193 13.3
2014-Nov-21 12:59 193 13.3
2014-Nov-21 12:49 193 13.3
2014-Nov-21 12:29 182 0 gusting 4 13.9
2014-Nov-21 12:19 182 13.9
2014-Nov-21 11:59 182 13.3
2014-Nov-21 11:49 182 13.3
2014-Nov-21 11:29 182 13.3
2014-Nov-21 11:19 181 13.3
2014-Nov-21 10:59 005 13.3
2014-Nov-21 10:49 005 0 gusting 3 12.8
2014-Nov-21 10:29 355 1 gusting 5 11.7
2014-Nov-21 10:19 010 0 gusting 6 11.1
2014-Nov-21 09:59 360 10.6
2014-Nov-21 09:39 360 10.0
2014-Nov-21 09:29 360 1 gusting 4 9.4
2014-Nov-21 09:19 360 2 gusting 5 8.9
2014-Nov-21 08:59 360 0 gusting 5 7.8
2014-Nov-21 08:49 355 1 gusting 3 7.2
2014-Nov-21 08:29 319 0 gusting 3 6.7
2014-Nov-21 08:19 062 6.1
2014-Nov-21 07:59 360 6.1
2014-Nov-21 07:49 360 6.1
2014-Nov-21 07:29 360 6.1
2014-Nov-21 07:19 360 6.1
2014-Nov-21 06:59 360 6.7
2014-Nov-21 06:49 360 7.2
2014-Nov-21 06:29 360 7.2
2014-Nov-21 06:19 360 7.2
2014-Nov-21 05:59 360 0 gusting 4 7.2
2014-Nov-21 05:49 360 0 gusting 5 7.2
2014-Nov-21 05:29 360 6.7
2014-Nov-21 05:19 360 2 gusting 4 6.7
2014-Nov-21 04:59 183 6.7
2014-Nov-21 04:29 183 7.2
2014-Nov-21 04:09 183 7.2
2014-Nov-21 03:59 183 7.2
2014-Nov-21 03:49 183 7.2
2014-Nov-21 03:29 183 7.2
2014-Nov-21 03:19 183 6.7
2014-Nov-21 02:59 183 7.2
2014-Nov-21 02:49 183 7.2
2014-Nov-21 02:29 183 7.8
2014-Nov-21 02:19 183 7.8
2014-Nov-21 01:59 183 7.8
2014-Nov-21 01:49 183 7.8
2014-Nov-21 01:29 183 8.3
2014-Nov-21 01:19 183 8.3
2014-Nov-21 00:59 183 8.9
2014-Nov-21 00:49 183 8.9
2014-Nov-21 00:29 183 9.4
2014-Nov-21 00:19 183 9.4
2014-Nov-20 23:59 183 9.4
2014-Nov-20 23:49 183 10.0
2014-Nov-20 23:29 183 10.0
2014-Nov-20 23:19 183 10.0
2014-Nov-20 22:59 183 10.0
2014-Nov-20 22:49 183 10.0
2014-Nov-20 22:29 183 9.4
2014-Nov-20 22:19 183 10.0
2014-Nov-20 21:59 183 10.0
2014-Nov-20 21:49 183 10.0
2014-Nov-20 21:29 183 10.0
2014-Nov-20 21:19 183 10.0
2014-Nov-20 20:59 183 10.0
2014-Nov-20 20:49 183 10.0
2014-Nov-20 20:29 183 10.6
2014-Nov-20 20:19 183 10.6
2014-Nov-20 19:59 183 11.1
2014-Nov-20 19:49 183 11.1
2014-Nov-20 19:29 183 11.7
2014-Nov-20 19:19 183 11.7
2014-Nov-20 18:59 183 11.7
2014-Nov-20 18:49 183 11.7
2014-Nov-20 18:29 183 12.2
2014-Nov-20 18:19 183 12.2
2014-Nov-20 17:59 183 12.8
2014-Nov-20 17:49 183 12.8
2014-Nov-20 17:29 183 12.8
2014-Nov-20 17:19 183 13.3
2014-Nov-20 16:59 183 14.4
2014-Nov-20 16:39 183 15.0
2014-Nov-20 16:29 183 15.0
2014-Nov-20 16:19 183 15.0
2014-Nov-20 15:59 183 15.6
2014-Nov-20 15:49 183 15.6
2014-Nov-20 15:29 183 15.6
2014-Nov-20 15:19 182 1 gusting 5 15.6
2014-Nov-20 14:59 188 0 gusting 5 16.1
2014-Nov-20 14:49 206 1 gusting 6 16.1
2014-Nov-20 14:29 174 0 gusting 6 16.1
2014-Nov-20 14:19 173 2 gusting 6 16.1
2014-Nov-20 13:59 194 2 gusting 7 16.1
2014-Nov-20 13:49 167 1 gusting 7 16.1
2014-Nov-20 13:29 190 0 gusting 7 16.7
2014-Nov-20 13:19 169 1 gusting 6 16.1
2014-Nov-20 12:59 184 0 gusting 6 16.1
2014-Nov-20 12:49 176 2 gusting 6 16.7
2014-Nov-20 12:29 185 16.1
2014-Nov-20 12:19 188 16.1
2014-Nov-20 11:59 076 15.0
2014-Nov-20 11:49 076 15.0
2014-Nov-20 11:29 080 14.4
2014-Nov-20 11:19 080 14.4
2014-Nov-20 10:59 355 1 gusting 4 13.9
2014-Nov-20 10:49 355 0 gusting 3 13.9
2014-Nov-20 10:29 355 1 gusting 4 13.3
2014-Nov-20 10:19 355 12.8
2014-Nov-20 09:59 360 0 gusting 4 12.2
2014-Nov-20 09:49 009 2 gusting 4 11.7
2014-Nov-20 09:29 005 3 gusting 5 11.1
2014-Nov-20 09:19 190 1 gusting 3 10.0
2014-Nov-20 08:49 190 8.3
2014-Nov-20 08:29 190 8.3
2014-Nov-20 08:19 190 7.8
2014-Nov-20 07:59 190 284 gusting 284 6.7
2014-Nov-20 07:49 190 6.7
2014-Nov-20 07:29 190 6.1
2014-Nov-20 07:19 190 6.1
2014-Nov-20 06:59 190 6.1
2014-Nov-20 06:49 190 6.1
2014-Nov-20 06:29 190 6.7
2014-Nov-20 06:19 190 6.7
2014-Nov-20 05:59 190 6.7
2014-Nov-20 05:49 190 6.7
2014-Nov-20 05:29 190 6.7
2014-Nov-20 05:19 190 7.2
2014-Nov-20 04:59 190 7.2
2014-Nov-20 04:49 190 7.8
2014-Nov-20 04:39 190 7.8
2014-Nov-20 04:29 190 7.8
2014-Nov-20 04:19 190 7.8
2014-Nov-20 04:09 190 7.8
2014-Nov-20 03:59 190 7.8
2014-Nov-20 03:49 190 7.8
2014-Nov-20 03:29 190 7.8
2014-Nov-20 03:19 190 7.8
2014-Nov-20 02:59 190 7.8
2014-Nov-20 02:49 190 7.8
2014-Nov-20 02:29 190 7.2
2014-Nov-20 02:19 190 7.2
2014-Nov-20 01:59 190 7.8
2014-Nov-20 01:49 190 7.8
2014-Nov-20 01:29 190 7.8
2014-Nov-20 01:19 190 7.8
2014-Nov-20 00:59 190 7.8
2014-Nov-20 00:49 190 8.3
2014-Nov-20 00:29 190 8.3
2014-Nov-20 00:19 190 8.3